TimeEDT,TemperatureF,Dew PointF,Humidity,Sea Level PressureIn,VisibilityMPH,Wind Direction,Wind SpeedMPH,Gust SpeedMPH,PrecipitationIn,Events,Conditions,WindDirDegrees,DateUTC
12:56 AM,55.0,30.0,38,30.15,10.0,NNW,10.4,-,N/A,,Mostly Cloudy,340,2013-05-14 04:56:00
1:56 AM,53.1,32.0,45,30.15,10.0,NNW,6.9,-,N/A,,Scattered Clouds,340,2013-05-14 05:56:00
2:56 AM,51.1,32.0,48,30.16,10.0,NE,5.8,-,N/A,,Scattered Clouds,40,2013-05-14 06:56:00
3:56 AM,46.9,36.0,66,30.16,10.0,Calm,Calm,-,N/A,,Partly Cloudy,0,2013-05-14 07:56:00
4:56 AM,46.0,37.0,71,30.16,10.0,Calm,Calm,-,N/A,,Partly Cloudy,0,2013-05-14 08:56:00
5:56 AM,45.0,37.0,74,30.18,10.0,Calm,Calm,-,N/A,,Scattered Clouds,0,2013-05-14 09:56:00
6:56 AM,46.9,39.9,77,30.19,10.0,Calm,Calm,-,N/A,,Scattered Clouds,0,2013-05-14 10:56:00
7:56 AM,53.1,41.0,64,30.21,10.0,Calm,Calm,-,N/A,,Scattered Clouds,0,2013-05-14 11:56:00
8:56 AM,55.0,37.0,51,30.22,10.0,WNW,3.5,-,N/A,,Mostly Cloudy,290,2013-05-14 12:56:00
9:56 AM,59.0,37.9,46,30.22,10.0,NW,9.2,-,N/A,,Mostly Cloudy,320,2013-05-14 13:56:00
10:56 AM,60.1,33.1,36,30.23,10.0,North,6.9,-,N/A,,Scattered Clouds,350,2013-05-14 14:56:00
11:56 AM,61.0,34.0,36,30.22,10.0,NW,6.9,-,N/A,,Scattered Clouds,310,2013-05-14 15:56:00
12:56 PM,62.1,34.0,35,30.20,10.0,Variable,5.8,16.1,N/A,,Scattered Clouds,0,2013-05-14 16:56:00
1:56 PM,64.0,32.0,30,30.18,10.0,WSW,13.8,17.3,N/A,,Scattered Clouds,240,2013-05-14 17:56:00
2:56 PM,64.0,34.0,33,30.16,10.0,WSW,6.9,-,N/A,,Scattered Clouds,250,2013-05-14 18:56:00
3:56 PM,62.1,37.9,41,30.14,10.0,ESE,10.4,-,N/A,,Scattered Clouds,110,2013-05-14 19:56:00
4:56 PM,61.0,37.9,42,30.15,10.0,East,10.4,-,N/A,,Scattered Clouds,100,2013-05-14 20:56:00
5:56 PM,60.1,39.9,47,30.13,10.0,SE,11.5,-,N/A,,Scattered Clouds,130,2013-05-14 21:56:00
6:56 PM,57.9,42.1,56,30.13,10.0,SSE,11.5,-,N/A,,Scattered Clouds,150,2013-05-14 22:56:00
7:56 PM,57.9,43.0,58,30.12,10.0,SSE,12.7,-,N/A,,Mostly Cloudy,160,2013-05-14 23:56:00
8:56 PM,57.9,45.0,62,30.13,10.0,SSE,10.4,-,N/A,,Overcast,150,2013-05-15 00:56:00
9:56 PM,57.9,46.9,67,30.13,10.0,SSE,8.1,-,N/A,,Overcast,160,2013-05-15 01:56:00
10:56 PM,59.0,48.9,69,30.13,10.0,South,6.9,-,N/A,,Overcast,170,2013-05-15 02:56:00
11:56 PM,60.1,48.0,64,30.12,10.0,South,5.8,-,N/A,,Overcast,170,2013-05-15 03:56:00